www.pogodaiklimat.ru

Погода и климат >> Архив погоды >> Оман >> Ибра


ПОГОДА в Ибре

  • Прогноз погоды в Ибре
  • Монитор погоды в Ибре

АРХИВ ПОГОДЫ в Ибре

Время (UTC), дата Ветер
(напр.,м/с)
 
Видим.   Явления Облачность Т
(С)
Тd
(С)
f
(%)
Тe
(С)
Тes
(С)
Комфортность P
(гПа)
Po
(гПа)
Тmin
(С)
Tmax
(С)
R
(мм)
R24
(мм)
S
(см)
03 13.08 штиль 0 н/о н/о +29.9 +16.4 44 +33 +33 душно 998.9 944.6
06 13.08 З 2 н/о н/о +33.3 +15.3 34 +35 +35 душно 998.2 944.5 +29.4
09 13.08 З 3 н/о н/о +38.1 +14.2 24 +39 +39 очень
душно
995.1 942.4
12 13.08 Ю 5 н/о н/о +40.2 +14.4 22 +41 +41 опасность
перегрева
992.4 940.1
15 13.08 Ю 5 н/о н/о +37.3 +15.2 27 +39 +39 очень
душно
995.0 942.1
18 13.08 ЮВ 5 н/о н/о +31.0 +20.6 54 +38 +38 очень
душно
998.8 944.8 +41.8
21 13.08 штиль 0 н/о н/о +29.7 +20.5 58 +37 +37 очень
душно
997.8 943.7
00 14.08 штиль 0 н/о н/о +29.2 +20.1 58 +36 +36 очень
душно
997.4 943.2
03 14.08 В 1 н/о н/о +29.2 +19.9 57 +35 +35 очень
душно
998.6 944.3
06 14.08 В 2 н/о н/о +34.0 +19.4 42 +39 +39 очень
душно
998.2 944.7 +28.5
09 14.08 В 2 н/о н/о +39.5 +15.8 25 +41 +41 опасность
перегрева
995.3 942.8
12 14.08 н/о н/о +40.8 +10.9 17 993.8 941.5
15 14.08 ЮВ 7 н/о н/о +36.3 +18.5 35 +40 +40 очень
душно
996.1 943.1
18 14.08 ЮВ 3 н/о н/о +31.5 +20.3 51 +38 +38 очень
душно
999.2 945.3 +42.3
21 14.08 ЮВ 3 н/о н/о +28.9 +19.8 58 +35 +35 очень
душно
999.4 945.0
00 15.08 штиль 0 н/о н/о +27.4 +20.2 65 +34 +34 очень
душно
999.0 944.3
03 15.08 ЮВ 2 н/о н/о +27.5 +20.6 66 +34 +34 очень
душно
1000.3 945.7
06 15.08 В 1 н/о н/о +32.6 +19.9 47 +39 +39 очень
душно
999.8 946.0 +26.8
09 15.08 ЮВ 2 н/о н/о +39.0 +14.6 24 +40 +40 очень
душно
996.5 943.8
12 15.08 С 6 н/о н/о +42.1 +8.5 13 +40 +40 очень
жарко
994.4 942.2
15 15.08 ЮВ 6 н/о н/о +34.9 +20.2 42 +41 +41 опасность
перегрева
997.0 943.7
18 15.08 Ю 2 н/о н/о +30.8 +21.0 56 +38 +38 очень
душно
999.6 945.5 +42.7
21 15.08 ЮВ 2 н/о н/о +28.1 +21.4 67 +36 +36 очень
душно
999.5 945.0
00 16.08 ЮВ 1 н/о н/о +26.3 +21.2 74 +33 +33 очень
душно
999.6 944.8
03 16.08 штиль 0 н/о н/о +26.4 +21.3 74 +34 +34 очень
душно
999.9 945.1
06 16.08 В 2 н/о н/о +31.3 +21.6 56 +39 +39 очень
душно
999.6 945.7 +25.4
09 16.08 Ю 3 н/о н/о +39.5 +13.2 21 +39 +39 очень
жарко
995.9 943.4
12 16.08 ЮВ 2 н/о н/о +42.0 +5.7 11 +39 +39 очень
жарко
993.4 941.2
15 16.08 ЮВ 5 н/о н/о +37.7 +16.7 29 +40 +40 очень
душно
994.8 942.1
18 16.08 ЮВ 3 9000 м мгла ясно +32.2 +20.5 50 +39 +39 очень
душно
999.1 944.0 +43.4
21 16.08 В 2 н/о н/о +30.0 +20.8 58 +37 +37 очень
душно
997.2 943.2
00 17.08 В 1 н/о н/о +28.2 +20.7 64 +35 +35 очень
душно
996.8 942.4
03 17.08 штиль 0 н/о н/о +28.6 +21.1 64 +36 +36 очень
душно
998.1 943.7
06 17.08 ЮЗ 2 н/о н/о +35.6 +18.9 38 +40 +40 очень
душно
997.1 944.0 +27.2
09 17.08 З 2 н/о н/о +42.2 +2.2 9 +39 +39 очень
жарко
994.2 942.0
12 17.08 СВ 4 н/о н/о +43.0 -0.2 7 +39 +39 очень
жарко
992.5 940.6
15 17.08 С 2 н/о н/о +40.6 -0.3 8 +37 +37 очень
жарко
993.7 941.3
18 17.08 ЮВ 3 н/о н/о +32.0 +21.4 54 +40 +40 очень
душно
997.6 943.9 +43.7
21 17.08 ЮВ 2 н/о н/о +29.0 +20.3 59 +35 +35 очень
душно
998.4 944.1
00 18.08 Ю 1 н/о н/о +28.1 +20.0 61 +34 +34 очень
душно
998.4 943.9
03 18.08 штиль 0 н/о н/о +29.0 +20.3 59 +35 +35 очень
душно
999.5 945.2
06 18.08 СВ 1 н/о н/о +35.0 +19.5 40 +40 +40 очень
душно
999.4 946.0 +27.6
09 18.08 С 2 н/о н/о +39.9 +13.8 21 +40 +40 очень
душно
996.9 944.3
12 18.08 В 5 н/о н/о +41.6 +6.3 12 +39 +39 очень
жарко
995.1 942.8
15 18.08 ЮВ 5 7000 м пыль 3/0
[Ac trans]
+35.1 +19.5 40 +40 +40 очень
душно
999.0 944.3
18 18.08 ЮВ 3 н/о н/о +29.7 +21.4 61 +38 +38 очень
душно
1001.0 946.7 +42.2
21 18.08 ЮВ 2 н/о н/о +26.3 +21.8 76 +34 +34 очень
душно
1001.4 946.5
00 19.08 ЮВ 2 н/о н/о +24.6 +22.1 86 +32 +32 очень
душно
1001.3 946.1
03 19.08 ЮВ 1 н/о н/о +24.6 +22.3 87 +32 +32 очень
душно
1002.9 947.6
06 19.08 ЮВ 2 н/о н/о +31.9 +21.7 55 +40 +40 очень
душно
1002.0 948.0 +24.0
09 19.08 ЮВ 3 н/о н/о +39.2 +15.5 25 +41 +41 опасность
перегрева
998.9 946.2
12 19.08 ЮВ 4 н/о н/о +39.3 +11.3 19 +38 +38 очень
жарко
997.9 945.1
15 19.08 ЮВ 5 н/о н/о +33.0 +19.0 44 +38 +38 очень
душно
1000.8 947.0
18 19.08 ЮВ 4 н/о н/о +28.3 +20.7 63 +35 +35 очень
душно
1003.7 949.0 +40.4
21 19.08 ЮВ 3 н/о н/о +25.0 +22.1 84 +32 +32 очень
душно
1003.7 948.5
00 20.08 ЮВ 2 н/о н/о +24.0 +22.0 89 +31 +31 очень
душно
1003.7 948.3

 

Местоположение метеостанции Ибра (Оман): широта 22.73 долгота 58.50 высота над уровнем моря 469 м.

В архиве по умолчанию представлена погода в Ибре за последнюю неделю. Архивные данные за месяц целиком и за предыдущие месяцы, начиная с января 2011 года, Вы можете получить, выбрав интересующий диапазон дат из раскрывающегося списка и нажав кнопку "Ввод!".


*Определитесь, кто Вы:
робот инопланетянин человек

Внимание! Время в таблицах - всемирное. Для получения местного времени необходимо прибавить поправку, которая равна 4 ч.

Смотрите также архив погоды в соседних городах и на ближайших метеорологических станциях:

Погода в Аль Мудайби (Оман) (45 км)
Погода в Бидии (Оман) (47 км)
Погода в Аль Амарат (Оман) (86 км)
Погода в Самаиле (Оман) (86 км)
Погода в Калхате (Оман) (93 км)
Погода в Саике (Оман) (97 км)
Погода в Сибе (Оман) (97 км)
Погода в Порту Sultan Qaboos (Оман) (99 км)
Погода в Назве (Оман) (100 км)
Погода в Суре (Оман) (102 км)

Пояснения к столбцам:

Ветер - указаны скорость ветра в м/с - средняя за 10 мин, порывы в срок и между сроками (в фигурных скобках) и направление, откуда дует ветер: С - северный, СВ - северо-восточный, В - восточный, ЮВ - юго-восточный, Ю - южный, ЮЗ - юго-западный, З - западный, СЗ - северо-западный.
Видимость - горизонтальная дальность видимости в метрах или километрах. При видимости от 1 до 10 км при отсутствии осадков обычно наблюдается дымка, при ухудшении видимости до 1 км и менее - туман. В сухую погоду видимость может ухудшаться дымом, пылью или мглою.
Явления - указаны атмосферные явления, наблюдавшиеся в срок или в последний час перед сроком; фигурными скобками обозначены явления, наблюдавшиеся между сроками (за 1-3 часа до срока); квадратными скобками обозначены град или гололедные отложения с указанием их диаметра в мм.
Облачность - указаны через наклонную черту общая и нижняя облачность в баллах и высота нижней границы облаков в метрах; квадратными скобками обозначены формы облаков: Ci - перистые, Cs - перисто-слоистые, Cc - перисто-кучевые, Ac - высококучевые, As - высокослоистые, Sc - слоисто-кучевые, Ns - слоисто-дождевые, Cu - кучевые, Cb - кучево-дождевые. Подробнее классификацию облаков см. в Атласе облаков (PDF).
T - Температура воздуха - температура, измеренная на высоте 2 м над землей.
Td - Температура точки росы - температура, при понижении до которой содержащийся в воздухе водяной пар достигнет насыщения.
f - Относительная влажность воздуха - влажноcть воздуха, измеренная на высоте 2 м над землей.
Te - Эффективная температура - температура, которую ощущает одетый по сезону человек в тени. Характеристика душности погоды. При расчете учитывается влияние влажности воздуха и скорости ветра на теплоощущения человека.
Tes - Эффективная температура на солнце - температура, которую ощущает человек, с поправкой на солнечный нагрев. Характеристика знойности погоды. Зависит от высоты солнца над горизонтом, облачности и скорости ветра. Ночью, в пасмурную погоду, а также при ветре 12 м/с и более поправка равна нулю.
P - Атмосферное давление - приведенное к уровню моря атмосферное давление.
Po - Атмосферное давление - измеренное на уровне метеостанции атмосферное давление.
Tmin - Минимальная температура - минимум температуры воздуха на высоте 2 м над землей.
Tmax - Максимальная температура - максимум температуры воздуха на высоте 2 м над землей.
R - Количество осадков - Количество выпавших осадков за период времени, мм. При наведении курсора мыши на число - период времени, за который выпало указанное количество осадков.
R24 - Количество осадков - Количество выпавших осадков за 24 часа, мм.
S - Снежный покров - Высота снежного покрова, см. При наведении курсора мыши на число - состояние снежного покрова и степень покрытия местности в баллах.